Flag for U.S.A. Weather past 2 weeks in Beaumont, Texas, U.S.A.

Now
89 °F

Broken clouds.


Feels Like: 98 °F
Forecast: 75 / 89 °F
Wind: 12 mph from East

Location: Jefferson County Airport

Current Time: Aug 27, 2014 at 12:31:32 PM

Latest Report: Aug 27, 2014 at 12:00 PM


Visibility: 10 mi

Pressure: 30.00 "Hg

Humidity: 61%

Dew point: 74 °F

Location of BeaumontLocation

Historic Weather in Beaumont — Graph

°F

Beaumont temperature yesterday

Maximum temperature yesterday: 93 °F (at 3:53 PM)
Minimum temperature yesterday: 74 °F (at 6:53 AM)
Average temperature yesterday: 83 °F

Past Weeks' High & Low Weather Summary

 TemperatureHumidityPressure
High97 °F (Aug 25, 2:53 PM)97% (Aug 23, 3:53 AM)30.10 "Hg (Aug 23, 3:53 AM)
Low74 °F (Aug 15, 6:53 AM)40% (Aug 12, 4:53 PM)29.83 "Hg (Aug 25, 5:53 PM)
Average83 °F74%29.97 "Hg
* Reported Aug 12 10:53 AM — Aug 27 10:53 AM, Beaumont, Weather by CustomWeather, © 2014

Note: Actual official high and low records may vary slightly from our data, if they occured in-between our weather recording intervals... More about our weather records

Advertising

Beaumont weather history for previous 24 hours

 ConditionsComfort  
Time TempWeatherWind HumidityBarometerVisibility
10:53 AM
Aug 27
86 °FMostly cloudy.12 mph65%30.00 "Hg10 mi
9:53 AM86 °FScattered clouds.12 mph63%30.00 "Hg10 mi
8:53 AM83 °FSunny.10 mph72%29.98 "Hg10 mi
7:53 AM80 °FSunny.9 mph79%29.98 "Hg10 mi
6:53 AM77 °FClear.8 mph88%29.97 "Hg10 mi
5:53 AM76 °FClear.10 mph91%29.95 "Hg9 mi
4:53 AM77 °FClear.9 mph88%29.95 "Hg9 mi
3:53 AM78 °FClear.7 mph90%29.94 "Hg9 mi
2:53 AM80 °FClear.6 mph81%29.95 "Hg10 mi
1:53 AM81 °FClear.7 mph74%29.97 "Hg10 mi
12:53 AM82 °FClear.6 mph77%29.98 "Hg10 mi
11:53 PM
Aug 26
82 °FClear.7 mph77%29.97 "Hg10 mi
10:53 PM82 °FClear.7 mph77%29.97 "Hg10 mi
9:53 PM83 °FClear.7 mph68%29.96 "Hg10 mi
8:53 PM85 °FClear.9 mph61%29.94 "Hg10 mi
7:53 PM86 °FPassing clouds.12 mph59%29.93 "Hg10 mi
6:53 PM89 °FBroken clouds.12 mph53%29.92 "Hg10 mi
5:53 PM91 °FPassing clouds.12 mph50%29.92 "Hg10 mi
4:53 PM93 °FPassing clouds.16 mph47%29.93 "Hg10 mi
3:53 PM93 °FScattered clouds.16 mph50%29.93 "Hg10 mi
2:53 PM90 °FBroken clouds.10 mph57%29.95 "Hg10 mi
1:53 PM91 °FBroken clouds.15 mph56%29.96 "Hg10 mi
12:53 PM92 °FSunny.13 mph58%29.98 "Hg10 mi
Weather by CustomWeather, © 2014

See weather overviewHow to use our weather pages